TimeHST,TemperatureF,Dew PointF,Humidity,Sea Level PressureIn,VisibilityMPH,Wind Direction,Wind SpeedMPH,Gust SpeedMPH,PrecipitationIn,Events,Conditions,WindDirDegrees,DateUTC
12:53 AM,75.9,70.0,82,30.00,10.0,Calm,Calm,-,N/A,,Scattered Clouds,0,2013-10-27 10:53:00
1:00 AM,75.2,69.8,83,30.00,10.0,NW,3.5,-,N/A,,Mostly Cloudy,320,2013-10-27 11:00:00
1:07 AM,75.2,69.8,83,30.00,10.0,NNW,4.6,-,N/A,,Scattered Clouds,340,2013-10-27 11:07:00
1:53 AM,75.0,68.0,79,29.99,10.0,Calm,Calm,-,N/A,,Scattered Clouds,0,2013-10-27 11:53:00
2:53 AM,75.0,69.1,82,29.97,10.0,NNW,3.5,-,N/A,,Partly Cloudy,340,2013-10-27 12:53:00
3:53 AM,73.9,69.1,85,29.98,10.0,Calm,Calm,-,N/A,,Partly Cloudy,0,2013-10-27 13:53:00
4:53 AM,73.9,69.1,85,29.97,10.0,Calm,Calm,-,N/A,,Partly Cloudy,0,2013-10-27 14:53:00
5:53 AM,73.9,69.1,85,29.98,10.0,NNW,3.5,-,N/A,,Partly Cloudy,340,2013-10-27 15:53:00
6:53 AM,73.9,70.0,87,29.99,10.0,Calm,Calm,-,N/A,,Scattered Clouds,0,2013-10-27 16:53:00
7:53 AM,77.0,70.0,79,30.01,10.0,Variable,3.5,-,N/A,,Scattered Clouds,0,2013-10-27 17:53:00
8:53 AM,79.0,71.1,77,30.03,10.0,Calm,Calm,-,N/A,,Scattered Clouds,0,2013-10-27 18:53:00
9:53 AM,81.0,71.1,72,30.04,10.0,South,5.8,-,N/A,,Scattered Clouds,170,2013-10-27 19:53:00
10:53 AM,81.0,72.0,74,30.02,10.0,SSW,10.4,-,N/A,,Scattered Clouds,200,2013-10-27 20:53:00
11:53 AM,82.0,71.1,69,30.01,10.0,South,6.9,-,N/A,Thunderstorm,Thunderstorm,180,2013-10-27 21:53:00
12:00 PM,80.6,71.6,74,30.00,10.0,South,6.9,-,N/A,Thunderstorm,Thunderstorm,190,2013-10-27 22:00:00
12:21 PM,80.6,71.6,74,30.00,10.0,South,5.8,-,N/A,,Mostly Cloudy,170,2013-10-27 22:21:00
12:53 PM,80.1,72.0,76,29.99,10.0,SSE,5.8,-,N/A,,Scattered Clouds,160,2013-10-27 22:53:00
1:53 PM,82.0,72.0,71,29.97,10.0,SW,8.1,-,N/A,,Scattered Clouds,220,2013-10-27 23:53:00
2:53 PM,82.9,72.0,69,29.95,10.0,SW,9.2,-,N/A,,Scattered Clouds,230,2013-10-28 00:53:00
3:53 PM,82.9,72.0,69,29.95,10.0,SSW,8.1,-,N/A,,Scattered Clouds,210,2013-10-28 01:53:00
4:28 PM,80.6,71.6,74,29.96,10.0,SW,10.4,-,N/A,Thunderstorm,Thunderstorm,220,2013-10-28 02:28:00
4:43 PM,78.8,71.6,78,29.97,10.0,East,12.7,-,N/A,Thunderstorm,Thunderstorm,90,2013-10-28 02:43:00
4:53 PM,79.0,70.0,74,29.97,10.0,ENE,12.7,-,N/A,Thunderstorm,Thunderstorm,70,2013-10-28 02:53:00
5:00 PM,78.8,71.6,78,29.97,10.0,East,10.4,-,0.00,Rain-Thunderstorm,Light Thunderstorms and Rain,80,2013-10-28 03:00:00
5:22 PM,78.8,71.6,78,29.97,10.0,NE,3.5,-,0.00,,Mostly Cloudy,40,2013-10-28 03:22:00
5:53 PM,78.1,71.1,79,29.98,8.0,NE,3.5,-,0.00,,Mostly Cloudy,50,2013-10-28 03:53:00
6:53 PM,78.1,72.0,81,30.00,10.0,East,4.6,-,N/A,,Scattered Clouds,90,2013-10-28 04:53:00
7:53 PM,78.1,70.0,76,30.02,10.0,ENE,5.8,-,N/A,,Scattered Clouds,60,2013-10-28 05:53:00
8:53 PM,77.0,71.1,82,30.03,10.0,NNE,4.6,-,N/A,,Scattered Clouds,30,2013-10-28 06:53:00
9:53 PM,77.0,70.0,79,30.04,10.0,North,4.6,-,N/A,,Partly Cloudy,10,2013-10-28 07:53:00
10:53 PM,77.0,69.1,76,30.03,10.0,Calm,Calm,-,N/A,,Partly Cloudy,0,2013-10-28 08:53:00
11:53 PM,75.0,70.0,84,30.03,10.0,NW,5.8,-,N/A,,Partly Cloudy,310,2013-10-28 09:53:00